When you browse on this site, cookies collect data to enhance your experience and personalize the content and advertising you see.
Visit our Privacy Policy to learn more. By continuing to use the site, you agree to this use of cookies and data.
  • In United Kingdom
  • List of Countries
  • For 7 days
  • Water Temperature
  • Satellite Maps
  • Weather Map
  • Weather Widgets
  • user-avatar
    Login

    Hourly Weather Louangphabang

    Today, 22 February, Friday

    Time Temperature Precipitation Wind Pressure Humidity
    00:00 +19°C° 0 mm 0 mps 699 mmHg 58%
    01:00 +18°C° 0 mm 0 mps 699 mmHg 63%
    02:00 +18°C° 0 mm 0 mps 699 mmHg 64%
    03:00 +18°C° 0 mm 0 mps 698 mmHg 66%
    04:00 +18°C° 0 mm 0 mps 698 mmHg 67%
    05:00 +17°C° 0 mm 0 mps 698 mmHg 67%
    06:00 +17°C° 0 mm 0 mps 699 mmHg 68%
    07:00 +18°C° 0 mm 0 mps 699 mmHg 72%
    08:00 +22°C° 0 mm 0 mps 699 mmHg 59%
    09:00 +26°C° 0 mm 0 mps 700 mmHg 46%
    10:00 +30°C° 0 mm 0 mps 701 mmHg 33%
    11:00 +33°C° 0 mm 1 mps 700 mmHg 30%
    12:00 +34°C° 0 mm 1 mps 699 mmHg 28%
    13:00 +36°C° 0 mm 2 mps 699 mmHg 25%
    14:00 +36°C° 0 mm 2 mps 698 mmHg 25%
    15:00 +36°C° 0 mm 2 mps 697 mmHg 25%
    16:00 +35°C° 0 mm 2 mps 697 mmHg 25%
    17:00 +32°C° 0 mm 2 mps 697 mmHg 32%
    18:00 +29°C° 0 mm 1 mps 696 mmHg 39%
    19:00 +26°C° 0 mm 1 mps 696 mmHg 46%
    20:00 +25°C° 0 mm 1 mps 697 mmHg 49%
    21:00 +24°C° 0 mm 1 mps 697 mmHg 52%
    22:00 +23°C° 0 mm 1 mps 697 mmHg 54%
    23:00 +22°C° 0 mm 1 mps 697 mmHg 56%

    Tomorrow, 23 February, Saturday

    Time Temperature Precipitation Wind Pressure Humidity
    00:00 +22°C° 0 mm 1 mps 697 mmHg 57%
    01:00 +21°C° 0 mm 1 mps 697 mmHg 58%
    02:00 +21°C° 0 mm 1 mps 697 mmHg 60%
    03:00 +19°C° 0 mm 0 mps 696 mmHg 61%
    04:00 +19°C° 0 mm 0 mps 696 mmHg 62%
    05:00 +18°C° 0 mm 0 mps 697 mmHg 63%
    06:00 +18°C° 0 mm 0 mps 697 mmHg 64%
    07:00 +18°C° 0 mm 0 mps 697 mmHg 65%
    08:00 +22°C° 0 mm 0 mps 698 mmHg 55%
    09:00 +28°C° 0 mm 1 mps 699 mmHg 46%
    10:00 +31°C° 0 mm 1 mps 700 mmHg 36%
    11:00 +33°C° 0 mm 1 mps 699 mmHg 32%
    12:00 +34°C° 0 mm 1 mps 699 mmHg 27%
    13:00 +35°C° 0 mm 1 mps 698 mmHg 22%
    14:00 +35°C° 0 mm 1 mps 697 mmHg 22%
    15:00 +35°C° 0 mm 1 mps 696 mmHg 21%
    16:00 +35°C° 0 mm 1 mps 696 mmHg 21%
    17:00 +32°C° 0 mm 1 mps 696 mmHg 28%
    18:00 +29°C° 0 mm 1 mps 696 mmHg 34%
    19:00 +26°C° 0 mm 1 mps 696 mmHg 41%
    20:00 +25°C° 0 mm 1 mps 696 mmHg 44%
    21:00 +24°C° 0 mm 1 mps 697 mmHg 47%
    22:00 +23°C° 0 mm 1 mps 697 mmHg 50%
    23:00 +23°C° 0 mm 1 mps 697 mmHg 52%

    Day after tomorrow, 24 February, Sunday

    Time Temperature Precipitation Wind Pressure Humidity
    00:00 +22°C° 0 mm 1 mps 697 mmHg 54%
    01:00 +20°C° 0 mm 0 mps 697 mmHg 56%
    02:00 +19°C° 0 mm 0 mps 697 mmHg 57%
    03:00 +19°C° 0 mm 0 mps 696 mmHg 58%
    04:00 +19°C° 0 mm 0 mps 696 mmHg 60%
    05:00 +19°C° 0 mm 0 mps 696 mmHg 61%
    06:00 +18°C° 0 mm 0 mps 697 mmHg 62%
    07:00 +18°C° 0 mm 0 mps 697 mmHg 64%
    08:00 +22°C° 0 mm 0 mps 698 mmHg 53%
    09:00 +26°C° 0 mm 0 mps 699 mmHg 42%
    10:00 +30°C° 0 mm 0 mps 700 mmHg 32%
    11:00 +34°C° 0 mm 1 mps 699 mmHg 28%
    12:00 +35°C° 0 mm 1 mps 699 mmHg 24%
    13:00 +36°C° 0 mm 1 mps 698 mmHg 20%
    14:00 +36°C° 0 mm 1 mps 697 mmHg 20%
    15:00 +36°C° 0 mm 1 mps 696 mmHg 19%
    16:00 +36°C° 0 mm 1 mps 696 mmHg 19%
    17:00 +33°C° 0 mm 1 mps 696 mmHg 25%
    18:00 +30°C° 0 mm 1 mps 696 mmHg 31%
    19:00 +24°C° 0 mm 0 mps 696 mmHg 36%
    20:00 +23°C° 0 mm 0 mps 696 mmHg 39%
    21:00 +25°C° 0 mm 1 mps 697 mmHg 42%
    22:00 +24°C° 0 mm 1 mps 697 mmHg 45%
    23:00 +23°C° 0 mm 1 mps 697 mmHg 46%

    25 February, Monday

    Time Temperature Precipitation Wind Pressure Humidity
    00:00 +23°C° 0 mm 1 mps 697 mmHg 48%
    01:00 +22°C° 0 mm 1 mps 697 mmHg 49%
    02:00 +20°C° 0 mm 0 mps 697 mmHg 50%
    03:00 +19°C° 0 mm 0 mps 696 mmHg 51%
    04:00 +19°C° 0 mm 0 mps 696 mmHg 52%
    05:00 +19°C° 0 mm 0 mps 697 mmHg 53%
    06:00 +19°C° 0 mm 0 mps 697 mmHg 54%
    07:00 +19°C° 0 mm 0 mps 698 mmHg 56%
    08:00 +23°C° 0 mm 0 mps 699 mmHg 46%
    09:00 +27°C° 0 mm 0 mps 700 mmHg 37%
    10:00 +31°C° 0 mm 0 mps 701 mmHg 28%
    11:00 +34°C° 0 mm 1 mps 700 mmHg 26%
    12:00 +35°C° 0 mm 1 mps 699 mmHg 23%
    13:00 +37°C° 0 mm 2 mps 698 mmHg 20%
    14:00 +37°C° 0 mm 2 mps 698 mmHg 20%
    15:00 +36°C° 0 mm 1 mps 697 mmHg 20%
    16:00 +36°C° 0 mm 1 mps 696 mmHg 20%
    17:00 +33°C° 0 mm 1 mps 696 mmHg 26%
    18:00 +30°C° 0 mm 1 mps 696 mmHg 32%
    19:00 +27°C° 0 mm 1 mps 696 mmHg 39%
    20:00 +26°C° 0 mm 1 mps 697 mmHg 43%
    21:00 +25°C° 0 mm 1 mps 697 mmHg 47%
    22:00 +24°C° 0 mm 1 mps 698 mmHg 51%
    23:00 +23°C° 0.1 mm 1 mps 698 mmHg 55%

    26 February, Tuesday

    Time Temperature Precipitation Wind Pressure Humidity
    00:00 +23°C° 0.1 mm 1 mps 697 mmHg 58%
    01:00 +23°C° 0.1 mm 1 mps 697 mmHg 62%
    02:00 +22°C° 0.2 mm 1 mps 697 mmHg 65%
    03:00 +22°C° 0.2 mm 1 mps 697 mmHg 68%
    04:00 +22°C° 0.2 mm 1 mps 697 mmHg 72%
    05:00 +21°C° 0.2 mm 1 mps 697 mmHg 74%
    06:00 +19°C° 0.2 mm 0 mps 698 mmHg 77%
    07:00 +19°C° 0.2 mm 0 mps 698 mmHg 79%
    08:00 +24°C° 0.2 mm 1 mps 699 mmHg 68%
    09:00 +28°C° 0.2 mm 1 mps 700 mmHg 57%
    10:00 +31°C° 0.2 mm 1 mps 701 mmHg 46%
    11:00 +32°C° 0 mm 1 mps 700 mmHg 40%
    12:00 +35°C° 0 mm 2 mps 699 mmHg 34%
    13:00 +36°C° 0 mm 2 mps 699 mmHg 29%
    14:00 +35°C° 0 mm 2 mps 698 mmHg 31%
    15:00 +33°C° 0 mm 1 mps 697 mmHg 33%
    16:00 +33°C° 0 mm 1 mps 696 mmHg 35%
    17:00 +31°C° 0 mm 1 mps 697 mmHg 41%
    18:00 +29°C° 0 mm 1 mps 697 mmHg 46%
    19:00 +25°C° 0 mm 0 mps 697 mmHg 52%
    20:00 +26°C° 0.1 mm 1 mps 697 mmHg 57%
    21:00 +25°C° 0.1 mm 1 mps 698 mmHg 62%
    22:00 +23°C° 0.1 mm 1 mps 698 mmHg 67%
    23:00 +23°C° 0.1 mm 1 mps 698 mmHg 69%

    27 February, Wednesday

    Time Temperature Precipitation Wind Pressure Humidity
    00:00 +23°C° 0.1 mm 1 mps 697 mmHg 71%
    01:00 +22°C° 0.1 mm 1 mps 697 mmHg 73%
    02:00 +22°C° 0.1 mm 1 mps 697 mmHg 75%
    03:00 +22°C° 0.1 mm 1 mps 697 mmHg 76%
    04:00 +21°C° 0.1 mm 1 mps 697 mmHg 78%
    05:00 +19°C° 0.1 mm 0 mps 697 mmHg 79%
    06:00 +19°C° 0.1 mm 0 mps 698 mmHg 79%
    07:00 +19°C° 0.1 mm 0 mps 698 mmHg 80%
    08:00 +22°C° 0.5 mm 0 mps 699 mmHg 70%
    09:00 +28°C° 0.5 mm 1 mps 700 mmHg 59%
    10:00 +31°C° 0.5 mm 1 mps 701 mmHg 49%
    11:00 +32°C° 0.3 mm 1 mps 700 mmHg 44%
    12:00 +33°C° 0.3 mm 1 mps 699 mmHg 40%
    13:00 +34°C° 0.3 mm 1 mps 698 mmHg 35%
    14:00 +34°C° 0 mm 1 mps 698 mmHg 35%
    15:00 +34°C° 0 mm 1 mps 697 mmHg 35%
    16:00 +33°C° 0 mm 1 mps 697 mmHg 35%
    17:00 +31°C° 0 mm 1 mps 697 mmHg 41%
    18:00 +29°C° 0 mm 1 mps 697 mmHg 47%
    19:00 +25°C° 0 mm 0 mps 697 mmHg 53%
    20:00 +24°C° 0.1 mm 0 mps 697 mmHg 57%
    21:00 +25°C° 0.1 mm 1 mps 697 mmHg 61%
    22:00 +24°C° 0.1 mm 1 mps 698 mmHg 65%
    23:00 +23°C° 0.2 mm 1 mps 697 mmHg 68%
    Show more